When you browse on this site, cookies collect data to enhance your experience and personalize the content and advertising you see.
Visit our Privacy Policy to learn more. By continuing to use the site, you agree to this use of cookies and data.
  • In Romania
  • List of Countries
  • For 7 days
  • Water Temperature
  • Weather Map
  • Weather Widgets
  • user-avatar
    Login

    Hourly Weather Gaborone

    Today, 19 January, Sunday

    Time Temperature Precipitation Wind Pressure Humidity
    00:00 +20°C° 0 mm 1 mps 672 mmHg 92%
    01:00 +20°C° 0 mm 1 mps 672 mmHg 91%
    02:00 +20°C° 0 mm 1 mps 672 mmHg 93%
    03:00 +20°C° 0 mm 1 mps 672 mmHg 92%
    04:00 +20°C° 0 mm 1 mps 672 mmHg 92%
    05:00 +20°C° 0 mm 1 mps 671 mmHg 91%
    06:00 +20°C° 0 mm 2 mps 672 mmHg 85%
    07:00 +23°C° 0 mm 2 mps 673 mmHg 78%
    08:00 +24°C° 0 mm 2 mps 673 mmHg 71%
    09:00 +26°C° 0 mm 2 mps 674 mmHg 64%
    10:00 +28°C° 0 mm 2 mps 674 mmHg 56%
    11:00 +31°C° 0 mm 1 mps 674 mmHg 49%
    12:00 +32°C° 0 mm 1 mps 674 mmHg 45%
    13:00 +33°C° 0 mm 1 mps 673 mmHg 40%
    14:00 +34°C° 0 mm 1 mps 673 mmHg 36%
    15:00 +34°C° 0 mm 1 mps 673 mmHg 36%
    16:00 +35°C° 0 mm 2 mps 672 mmHg 35%
    17:00 +35°C° 0 mm 2 mps 672 mmHg 34%
    18:00 +32°C° 0 mm 2 mps 672 mmHg 38%
    19:00 +31°C° 0 mm 2 mps 673 mmHg 42%
    20:00 +30°C° 0 mm 2 mps 673 mmHg 45%
    21:00 +28°C° 0.1 mm 3 mps 673 mmHg 54%
    22:00 +27°C° 0.1 mm 3 mps 674 mmHg 64%
    23:00 +25°C° 0.1 mm 4 mps 674 mmHg 73%

    Tomorrow, 20 January, Monday

    Time Temperature Precipitation Wind Pressure Humidity
    00:00 +25°C° 0.4 mm 4 mps 674 mmHg 76%
    01:00 +23°C° 0.4 mm 5 mps 675 mmHg 79%
    02:00 +22°C° 0.4 mm 5 mps 675 mmHg 81%
    03:00 +22°C° 0 mm 5 mps 675 mmHg 81%
    04:00 +22°C° 0 mm 5 mps 675 mmHg 81%
    05:00 +22°C° 0 mm 5 mps 675 mmHg 81%
    06:00 +22°C° 0 mm 5 mps 676 mmHg 79%
    07:00 +23°C° 0 mm 4 mps 677 mmHg 76%
    08:00 +23°C° 0 mm 4 mps 677 mmHg 74%
    09:00 +26°C° 0 mm 4 mps 677 mmHg 67%
    10:00 +27°C° 0 mm 4 mps 677 mmHg 60%
    11:00 +29°C° 0 mm 4 mps 677 mmHg 53%
    12:00 +30°C° 0 mm 4 mps 677 mmHg 49%
    13:00 +32°C° 0 mm 5 mps 677 mmHg 46%
    14:00 +33°C° 0 mm 5 mps 676 mmHg 42%
    15:00 +33°C° 0 mm 5 mps 676 mmHg 43%
    16:00 +32°C° 0 mm 4 mps 676 mmHg 44%
    17:00 +32°C° 0 mm 4 mps 675 mmHg 45%
    18:00 +30°C° 0 mm 4 mps 675 mmHg 49%
    19:00 +28°C° 0 mm 4 mps 675 mmHg 52%
    20:00 +27°C° 0 mm 5 mps 675 mmHg 56%
    21:00 +26°C° 0 mm 5 mps 676 mmHg 58%
    22:00 +25°C° 0 mm 5 mps 676 mmHg 60%
    23:00 +25°C° 0 mm 5 mps 677 mmHg 62%

    Day after tomorrow, 21 January, Tuesday

    Time Temperature Precipitation Wind Pressure Humidity
    00:00 +23°C° 0 mm 5 mps 676 mmHg 65%
    01:00 +22°C° 0 mm 4 mps 676 mmHg 67%
    02:00 +22°C° 0 mm 4 mps 676 mmHg 70%
    03:00 +21°C° 0 mm 4 mps 676 mmHg 73%
    04:00 +21°C° 0 mm 3 mps 676 mmHg 77%
    05:00 +20°C° 0 mm 3 mps 676 mmHg 80%
    06:00 +20°C° 0 mm 3 mps 677 mmHg 77%
    07:00 +21°C° 0 mm 3 mps 677 mmHg 75%
    08:00 +21°C° 0 mm 4 mps 678 mmHg 73%
    09:00 +24°C° 0 mm 3 mps 678 mmHg 65%
    10:00 +26°C° 0 mm 3 mps 678 mmHg 58%
    11:00 +28°C° 0 mm 3 mps 678 mmHg 51%
    12:00 +30°C° 0 mm 3 mps 678 mmHg 46%
    13:00 +32°C° 0 mm 2 mps 678 mmHg 41%
    14:00 +34°C° 0 mm 1 mps 677 mmHg 35%
    15:00 +34°C° 0 mm 1 mps 676 mmHg 35%
    16:00 +34°C° 0 mm 1 mps 676 mmHg 34%
    17:00 +34°C° 0 mm 1 mps 675 mmHg 33%
    18:00 +32°C° 0 mm 2 mps 675 mmHg 38%
    19:00 +31°C° 0 mm 2 mps 675 mmHg 42%
    20:00 +29°C° 0 mm 2 mps 674 mmHg 46%
    21:00 +28°C° 0 mm 2 mps 675 mmHg 48%
    22:00 +28°C° 0 mm 2 mps 675 mmHg 50%
    23:00 +27°C° 0 mm 3 mps 675 mmHg 51%

    22 January, Wednesday

    Time Temperature Precipitation Wind Pressure Humidity
    00:00 +27°C° 0.2 mm 3 mps 675 mmHg 54%
    01:00 +26°C° 0.2 mm 3 mps 675 mmHg 57%
    02:00 +26°C° 0.2 mm 3 mps 675 mmHg 60%
    03:00 +25°C° 0 mm 2 mps 675 mmHg 63%
    04:00 +24°C° 0 mm 2 mps 675 mmHg 66%
    05:00 +24°C° 0 mm 2 mps 675 mmHg 68%
    06:00 +24°C° 0 mm 2 mps 675 mmHg 64%
    07:00 +25°C° 0 mm 3 mps 675 mmHg 61%
    08:00 +25°C° 0 mm 4 mps 676 mmHg 57%
    09:00 +27°C° 0 mm 4 mps 676 mmHg 51%
    10:00 +28°C° 0 mm 4 mps 676 mmHg 46%
    11:00 +30°C° 0 mm 4 mps 676 mmHg 41%
    12:00 +32°C° 0 mm 4 mps 676 mmHg 37%
    13:00 +34°C° 0 mm 3 mps 675 mmHg 33%
    14:00 +36°C° 0 mm 2 mps 675 mmHg 30%
    15:00 +34°C° 0.1 mm 3 mps 674 mmHg 34%
    16:00 +31°C° 0.1 mm 3 mps 673 mmHg 39%
    17:00 +30°C° 0.1 mm 4 mps 672 mmHg 44%
    18:00 +29°C° 0 mm 3 mps 672 mmHg 45%
    19:00 +29°C° 0 mm 2 mps 673 mmHg 47%
    20:00 +28°C° 0 mm 1 mps 673 mmHg 49%
    21:00 +27°C° 0.2 mm 2 mps 673 mmHg 51%
    22:00 +27°C° 0.2 mm 2 mps 673 mmHg 54%
    23:00 +26°C° 0.2 mm 2 mps 673 mmHg 56%

    23 January, Thursday

    Time Temperature Precipitation Wind Pressure Humidity
    00:00 +26°C° 0 mm 2 mps 673 mmHg 57%
    01:00 +25°C° 0 mm 2 mps 673 mmHg 58%
    02:00 +25°C° 0 mm 2 mps 672 mmHg 59%
    03:00 +24°C° 0.1 mm 2 mps 672 mmHg 63%
    04:00 +24°C° 0.1 mm 2 mps 672 mmHg 66%
    05:00 +23°C° 0.1 mm 2 mps 673 mmHg 70%
    06:00 +24°C° 0.6 mm 3 mps 673 mmHg 68%
    07:00 +23°C° 0.6 mm 4 mps 674 mmHg 67%
    08:00 +25°C° 0.6 mm 5 mps 674 mmHg 65%
    09:00 +27°C° 0 mm 5 mps 675 mmHg 58%
    10:00 +29°C° 0 mm 5 mps 675 mmHg 50%
    11:00 +33°C° 0 mm 4 mps 675 mmHg 42%
    12:00 +34°C° 0 mm 4 mps 675 mmHg 38%
    13:00 +35°C° 0 mm 3 mps 674 mmHg 34%
    14:00 +36°C° 0 mm 3 mps 674 mmHg 30%
    15:00 +34°C° 1.1 mm 3 mps 673 mmHg 36%
    16:00 +32°C° 1.1 mm 4 mps 673 mmHg 42%
    17:00 +29°C° 1.1 mm 5 mps 672 mmHg 48%
    18:00 +27°C° 1.6 mm 5 mps 672 mmHg 59%
    19:00 +23°C° 1.6 mm 5 mps 673 mmHg 69%
    20:00 +21°C° 1.6 mm 5 mps 673 mmHg 80%
    21:00 +21°C° 1.2 mm 5 mps 674 mmHg 82%
    22:00 +21°C° 1.2 mm 5 mps 674 mmHg 84%
    23:00 +20°C° 1.2 mm 5 mps 675 mmHg 85%

    24 January, Friday

    Time Temperature Precipitation Wind Pressure Humidity
    00:00 +20°C° 0.3 mm 5 mps 675 mmHg 85%
    01:00 +20°C° 0.3 mm 4 mps 674 mmHg 85%
    02:00 +20°C° 0.3 mm 4 mps 674 mmHg 85%
    03:00 +20°C° 0.3 mm 4 mps 674 mmHg 86%
    04:00 +20°C° 0.3 mm 4 mps 674 mmHg 88%
    05:00 +19°C° 0.3 mm 4 mps 675 mmHg 89%
    06:00 +20°C° 1.1 mm 4 mps 675 mmHg 86%
    07:00 +20°C° 1.1 mm 4 mps 675 mmHg 84%
    08:00 +21°C° 1.1 mm 5 mps 676 mmHg 81%
    09:00 +21°C° 0.4 mm 5 mps 676 mmHg 82%
    10:00 +21°C° 0.4 mm 5 mps 676 mmHg 82%
    11:00 +22°C° 0.4 mm 5 mps 677 mmHg 82%
    12:00 +22°C° 0.2 mm 5 mps 676 mmHg 79%
    13:00 +23°C° 0.2 mm 5 mps 676 mmHg 75%
    14:00 +25°C° 0.2 mm 5 mps 676 mmHg 72%
    15:00 +23°C° 0.5 mm 4 mps 675 mmHg 73%
    16:00 +23°C° 0.5 mm 4 mps 675 mmHg 75%
    17:00 +23°C° 0.5 mm 4 mps 674 mmHg 77%
    18:00 +23°C° 1.3 mm 4 mps 674 mmHg 79%
    19:00 +22°C° 1.3 mm 4 mps 675 mmHg 81%
    20:00 +22°C° 1.3 mm 3 mps 675 mmHg 83%
    21:00 +21°C° 2.7 mm 4 mps 675 mmHg 84%
    22:00 +21°C° 2.7 mm 4 mps 675 mmHg 84%
    23:00 +21°C° 2.7 mm 5 mps 676 mmHg 85%
    Show more